Goodland, KS

7:38 AM MDT on March 29, 2017 (GMT -0600)
Renner-Goodland Municipal

Weather History for KGLD - April, 2013

Change the Weather History Date:

Monday, April 22, 2013

  Actual Average Record
Temperature  
Mean Temperature 40 °F 51 °F  
Max Temperature 55 °F 66 °F 96 °F (1989)
Min Temperature 24 °F 37 °F 22 °F (1982)
Degree Days  
Heating Degree Days 25 14  
Month to date heating degree days 516 379  
Since 1 July heating degree days 5646 5554  
Cooling Degree Days 0 0  
Month to date cooling degree days 0 0  
Year to date cooling degree days 0 0  
Moisture  
Dew Point 31 °F    
Average Humidity 80    
Maximum Humidity 100    
Minimum Humidity 59    
Precipitation  
Precipitation 0.30 in 0.07 in 1.23 in (1944)
Month to date precipitation 0.59 1.09  
Year to date precipitation 2.89 3.03  
Snow  
Snow 6.10 in 0.10 in - ()
Month to date snowfall 9.6 3.6  
Since 1 July snowfall 52.6 34.4  
Snow Depth 0.00 in    
Sea Level Pressure  
Sea Level Pressure 30.08 in    
Wind  
Wind Speed 18 mph (NNE)    
Max Wind Speed 35 mph    
Max Gust Speed 41 mph    
Visibility 6 miles    
Events Snow    
T = Trace of Precipitation, MM = Missing Value Source: NWS Daily Summary

Daily Weather History Graph

Daily Weather History Graph

Search for Another Location

Airport or City:

Trip Planner

Search our weather history database for the weather conditions in past years. The results will help you decide how hot, cold, wet, or windy it might be!

Date:

Astronomy

Apr. 22, 2013 Rise Set
Actual Time 5:59 AM MDT 7:31 PM MDT
Civil Twilight 5:31 AM MDT 8:00 PM MDT
Nautical Twilight 4:57 AM MDT 8:34 PM MDT
Astronomical Twilight 4:21 AM MDT 9:10 PM MDT
Moon 4:23 PM MDT (4/22) 3:54 AM MDT (4/22)
Length of Visible Light 14h 28m
Length of Day
13h 32m
Waxing Gibbous, 88% of the Moon is Illuminated
Apr 22
Waxing Gibbous
Apr 25
Full
May 2
Last Quarter
May 9
New
May 17
First Quarter

Hourly Weather History & Observations

Time (MDT) Temp. Windchill Dew Point Humidity Pressure Visibility Wind Dir Wind Speed Gust Speed Precip Events Conditions
12:53 AM 45.0 °F 39.7 °F 39.0 °F 80% 29.97 in 10.0 mi ENE 10.4 mph - N/A   Clear
1:53 AM 43.0 °F 37.2 °F 39.0 °F 86% 29.93 in 10.0 mi ESE 10.4 mph - N/A   Clear
2:53 AM 41.0 °F 34.7 °F 37.9 °F 89% 29.90 in 10.0 mi ESE 10.4 mph - N/A   Clear
3:53 AM 39.9 °F 32.9 °F 37.9 °F 93% 29.87 in 10.0 mi ESE 11.5 mph - N/A   Clear
4:53 AM 39.0 °F 33.4 °F 37.0 °F 93% 29.86 in 10.0 mi ESE 8.1 mph - N/A   Clear
5:53 AM 37.9 °F 30.9 °F 37.0 °F 97% 29.84 in 10.0 mi SSE 10.4 mph - N/A   Clear
6:53 AM 39.9 °F 35.1 °F 37.9 °F 93% 29.86 in 10.0 mi South 6.9 mph - N/A   Clear
7:43 AM 44.6 °F - 41.0 °F 87% 29.91 in 10.0 mi Calm Calm - N/A   Overcast
7:53 AM 44.1 °F - 41.0 °F 89% 29.89 in 10.0 mi Calm Calm - N/A   Overcast
8:51 AM 46.4 °F 41.5 °F 41.0 °F 81% 29.93 in 10.0 mi NNW 10.4 mph - N/A   Overcast
8:53 AM 46.0 °F 40.2 °F 41.0 °F 83% 29.91 in 10.0 mi NW 12.7 mph - N/A   Overcast
9:33 AM 46.4 °F 40.4 °F 42.8 °F 87% 29.93 in 10.0 mi North 13.8 mph - N/A   Overcast
9:53 AM 45.0 °F 37.9 °F 42.1 °F 90% 29.91 in 10.0 mi North 16.1 mph - N/A   Overcast
10:23 AM 48.2 °F - 42.8 °F 82% 29.93 in 10.0 mi NNE 13.8 mph - N/A   Overcast
10:42 AM 48.2 °F - 41.0 °F 76% 29.93 in 10.0 mi North 13.8 mph - N/A   Overcast
10:53 AM 50.0 °F - 41.0 °F 71% 29.90 in 10.0 mi North 11.5 mph - N/A   Mostly Cloudy
11:32 AM 55.4 °F - 41.0 °F 58% 29.95 in 10.0 mi North 16.1 mph - N/A   Scattered Clouds
11:53 AM 53.1 °F - 39.9 °F 61% 29.91 in 10.0 mi North 20.7 mph 31.1 mph N/A   Mostly Cloudy
12:50 PM 42.8 °F 33.1 °F 39.2 °F 87% 29.99 in 10.0 mi NNE 25.3 mph 39.1 mph N/A   Overcast
12:53 PM 42.1 °F 31.9 °F 39.0 °F 89% 29.99 in 7.0 mi NNE 26.5 mph 39.1 mph N/A   Overcast
1:00 PM 39.2 °F 28.0 °F 37.4 °F 93% 30.00 in 1.8 mi North 26.5 mph 38.0 mph N/A   Overcast
1:18 PM 35.6 °F 23.0 °F 33.8 °F 93% 30.02 in 0.8 mi NNE 27.6 mph 36.8 mph 0.00 in   Mist
1:30 PM 33.8 °F 20.5 °F 33.8 °F 100% 30.03 in 1.5 mi NNE 27.6 mph 38.0 mph 0.00 in   Overcast
1:53 PM 32.0 °F 18.4 °F 30.9 °F 96% 30.08 in 2.5 mi North 26.5 mph 38.0 mph 0.00 in   Overcast
2:02 PM 32.0 °F 18.4 °F 30.2 °F 93% 30.06 in 8.0 mi NNE 26.5 mph 35.7 mph N/A   Overcast
2:53 PM 30.9 °F 15.5 °F 27.0 °F 85% 30.12 in 10.0 mi NNE 33.4 mph 41.4 mph N/A   Overcast
3:01 PM 30.2 °F 14.9 °F 26.6 °F 86% 30.07 in 10.0 mi NNE 31.1 mph 41.4 mph N/A   Overcast
3:53 PM 30.0 °F 16.3 °F 26.1 °F 85% 30.16 in 10.0 mi NNE 24.2 mph 32.2 mph N/A   Overcast
4:15 PM 30.2 °F 15.9 °F 24.8 °F 80% 30.09 in 10.0 mi NNE 26.5 mph 36.8 mph N/A   Overcast
4:53 PM 32.0 °F 18.6 °F 25.0 °F 75% 30.16 in 10.0 mi North 25.3 mph 35.7 mph N/A   Overcast
5:23 PM 30.2 °F 15.4 °F 24.8 °F 80% 30.12 in 1.8 mi NNE 28.8 mph 36.8 mph 0.00 in Snow Light Snow
5:34 PM 28.4 °F 13.8 °F 26.6 °F 93% 30.10 in 0.8 mi North 25.3 mph 35.7 mph 0.00 in Snow Light Snow
5:53 PM 28.9 °F 13.7 °F 26.1 °F 89% 30.17 in 0.8 mi North 28.8 mph 35.7 mph 0.00 in Snow Light Snow
6:02 PM 28.4 °F 13.5 °F 24.8 °F 86% 30.13 in 1.2 mi North 26.5 mph 36.8 mph 0.01 in Snow Light Snow
6:07 PM 28.4 °F 13.8 °F 24.8 °F 86% 30.14 in 3.0 mi North 25.3 mph 34.5 mph 0.01 in Snow Light Snow
6:16 PM 28.4 °F 14.1 °F 24.8 °F 86% 30.13 in 7.0 mi NNE 24.2 mph 34.5 mph 0.01 in Snow Light Snow
6:51 PM 28.4 °F 14.1 °F 24.8 °F 86% 30.15 in 2.0 mi North 24.2 mph 33.4 mph 0.01 in Snow Light Snow
6:53 PM 28.0 °F 14.3 °F 24.1 °F 85% 30.21 in 1.2 mi North 21.9 mph 33.4 mph 0.01 in Snow Light Snow
6:59 PM 26.6 °F 12.7 °F 24.8 °F 93% 30.16 in 0.8 mi North 20.7 mph 29.9 mph 0.00 in Snow Light Snow
7:11 PM 26.6 °F 12.0 °F 24.8 °F 93% 30.17 in 1.0 mi NNE 23.0 mph 28.8 mph 0.00 in Snow Light Snow
7:25 PM 26.6 °F 12.0 °F 24.8 °F 93% 30.18 in 0.8 mi North 23.0 mph 34.5 mph 0.01 in Snow Light Snow
7:44 PM 26.6 °F 12.4 °F 24.8 °F 93% 30.21 in 1.0 mi North 21.9 mph 27.6 mph 0.02 in Snow Light Snow
7:53 PM 27.0 °F 13.9 °F 24.1 °F 89% 30.29 in 1.0 mi North 18.4 mph 32.2 mph 0.02 in Snow Light Snow
8:53 PM 26.1 °F 10.7 °F 23.0 °F 88% 30.25 in 1.5 mi NNE 25.3 mph 28.8 mph 0.04 in Snow Light Snow
9:13 PM 26.6 °F 15.2 °F 24.8 °F 93% 30.25 in 2.0 mi North 13.8 mph - 0.00 in Snow Light Snow
9:38 PM 26.6 °F 13.4 °F 23.0 °F 86% 30.26 in 1.2 mi North 18.4 mph - 0.01 in Snow Light Snow
9:44 PM 26.6 °F 14.3 °F 24.8 °F 93% 30.25 in 0.8 mi NNE 16.1 mph - 0.01 in   Mist
9:53 PM 26.1 °F 13.1 °F 24.1 °F 92% 30.31 in 0.8 mi North 17.3 mph - 0.03 in   Mist
10:09 PM 26.6 °F 13.1 °F 24.8 °F 93% 30.27 in 1.2 mi North 19.6 mph - 0.01 in   Overcast
10:53 PM 25.0 °F 9.9 °F 23.0 °F 92% 30.30 in 1.0 mi North 23.0 mph - 0.03 in Snow Light Snow
11:14 PM 24.8 °F 10.7 °F 23.0 °F 93% 30.26 in 1.8 mi North 19.6 mph - 0.01 in Snow Light Snow
11:20 PM 24.8 °F 11.5 °F 23.0 °F 93% 30.25 in 2.0 mi North 17.3 mph - 0.01 in Snow Light Snow
11:39 PM 24.8 °F 11.5 °F 21.2 °F 86% 30.26 in 2.0 mi North 17.3 mph - 0.01 in Snow Light Snow
11:53 PM 25.0 °F 11.7 °F 23.0 °F 92% 30.28 in 2.0 mi North 17.3 mph - 0.01 in Snow Light Snow